Madison, SD

1:44 AM CST on December 16, 2019 (GMT -0600)
Madison Municipal

Weather History for KMDS - October, 2019

Change the Weather History Date:

Thursday, October 10, 2019

  Actual Average Record
Temperature  
Mean Temperature 41 °F -  
Max Temperature 50 °F 61 °F 80 °F (2015)
Min Temperature 32 °F 36 °F 24 °F (2017)
Degree Days  
Heating Degree Days 24    
Moisture  
Dew Point 39 °F    
Average Humidity 100    
Maximum Humidity 100    
Minimum Humidity 100    
Precipitation  
Precipitation 1.10 in - - ()
Sea Level Pressure  
Sea Level Pressure 29.86 in    
Wind  
Wind Speed 13 mph ()    
Max Wind Speed 28 mph    
Max Gust Speed 36 mph    
Visibility 6.7 miles    
Events Rain , Snow    
Averages and records for this station are not official NWS values.
T = Trace of Precipitation, MM = Missing Value Source: Averaged Metar Reports

Daily Weather History Graph

Daily Weather History Graph

Search for Another Location

Airport or City:

Astronomy

Oct. 10, 2019 Rise Set
Actual Time 7:36 AM CDT 6:53 PM CDT
Civil Twilight 7:07 AM CDT 7:22 PM CDT
Nautical Twilight 6:34 AM CDT 7:55 PM CDT
Astronomical Twilight 6:00 AM CDT 8:29 PM CDT
Moon 6:04 PM CDT (10/10) 4:11 AM CDT (10/10)
Length of Visible Light 12h 14m
Length of Day
11h 16m
Waxing Gibbous, 91% of the Moon is Illuminated
Oct 10
Waxing Gibbous
Oct 13
Full
Oct 21
Last Quarter
Oct 27
New
Nov 4
First Quarter

Hourly Weather History & Observations

Time (CDT) Temp. Windchill Dew Point Humidity Pressure Visibility Wind Dir Wind Speed Gust Speed Precip Events Conditions
12:15 AM 50.0 °F - 50.0 °F 100% 29.86 in 2.5 mi NNW 5.8 mph - N/A Rain Light Rain
12:20 AM 50.0 °F - 50.0 °F 100% 29.86 in 2.0 mi NW 5.8 mph - N/A Rain Light Rain
12:35 AM 50.0 °F - 50.0 °F 100% 29.86 in 2.5 mi NW 8.1 mph - N/A Rain Light Rain
12:40 AM 50.0 °F - 50.0 °F 100% 29.86 in 2.5 mi NW 5.8 mph - N/A Rain Light Rain
12:55 AM 50.0 °F - 50.0 °F 100% 29.86 in 3.0 mi NW 6.9 mph - N/A Rain Light Rain
1:15 AM 48.2 °F - 48.2 °F 100% 29.86 in 2.5 mi NW 8.1 mph - N/A Rain Light Rain
1:35 AM 48.2 °F - 48.2 °F 100% 29.86 in 5.0 mi NW 5.8 mph - N/A Rain Light Rain
1:40 AM 48.2 °F - 48.2 °F 100% 29.86 in 5.0 mi WNW 3.5 mph - N/A Rain Light Rain
1:55 AM 48.2 °F - 48.2 °F 100% 29.85 in 10.0 mi NW 11.5 mph - N/A   Overcast
2:00 AM 48.2 °F - 48.2 °F 100% 29.85 in 10.0 mi NW 9.2 mph - N/A   Overcast
2:15 AM 48.2 °F - 48.2 °F 100% 29.85 in 10.0 mi NW 11.5 mph - N/A   Overcast
2:35 AM 46.4 °F 41.5 °F 46.4 °F 100% 29.84 in 10.0 mi NW 10.4 mph - N/A   Overcast
2:40 AM 46.4 °F 41.5 °F 46.4 °F 100% 29.84 in 10.0 mi NNW 10.4 mph - N/A   Overcast
2:55 AM 46.4 °F 41.5 °F 46.4 °F 100% 29.85 in 10.0 mi NW 10.4 mph - N/A   Overcast
3:00 AM 46.4 °F 41.5 °F 46.4 °F 100% 29.84 in 10.0 mi NW 10.4 mph - N/A   Overcast
3:15 AM 46.4 °F 41.1 °F 46.4 °F 100% 29.84 in 5.0 mi NW 11.5 mph - N/A   Overcast
3:20 AM 46.4 °F 40.7 °F 46.4 °F 100% 29.84 in 4.0 mi NNW 12.7 mph - N/A   Overcast
3:35 AM 46.4 °F 40.4 °F 46.4 °F 100% 29.82 in 2.5 mi NNW 13.8 mph - N/A   Overcast
3:55 AM 46.4 °F 41.1 °F 46.4 °F 100% 29.81 in 2.5 mi NNW 11.5 mph - N/A   Overcast
4:00 AM 46.4 °F 41.9 °F 46.4 °F 100% 29.82 in 3.0 mi NNW 9.2 mph - N/A   Overcast
4:15 AM 46.4 °F 42.9 °F 46.4 °F 100% 29.82 in 4.0 mi NNW 6.9 mph - N/A   Overcast
4:20 AM 46.4 °F 42.4 °F 46.4 °F 100% 29.81 in 4.0 mi NNW 8.1 mph - N/A   Overcast
4:35 AM 46.4 °F 42.4 °F 46.4 °F 100% 29.81 in 4.0 mi North 8.1 mph - N/A   Overcast
4:55 AM 46.4 °F 41.9 °F 46.4 °F 100% 29.80 in 2.0 mi NNE 9.2 mph - N/A   Overcast
5:15 AM 48.2 °F - 48.2 °F 100% 29.80 in 1.8 mi North 3.5 mph - N/A   Overcast
5:35 AM 48.2 °F - 48.2 °F 100% 29.83 in 2.5 mi NW 4.6 mph - N/A   Overcast
5:40 AM 48.2 °F - 48.2 °F 100% 29.83 in 2.5 mi North 9.2 mph - N/A   Overcast
5:55 AM 46.4 °F 42.4 °F 46.4 °F 100% 29.86 in 2.0 mi NNW 8.1 mph - N/A Rain Light Rain
6:15 AM 44.6 °F 39.2 °F 44.6 °F 100% 29.85 in 2.0 mi NNW 10.4 mph - 0.07 in Rain Rain
6:20 AM 44.6 °F 37.8 °F 44.6 °F 100% 29.85 in 2.5 mi NNW 15.0 mph - 0.08 in Rain Light Rain
6:35 AM 42.8 °F 35.4 °F 42.8 °F 100% 29.83 in 9.0 mi North 15.0 mph 21.9 mph 0.09 in Rain Light Rain
6:55 AM 41.0 °F 33.5 °F 41.0 °F 100% 29.83 in 10.0 mi NNW 13.8 mph 18.4 mph 0.09 in   Overcast
7:00 AM 41.0 °F 33.9 °F 41.0 °F 100% 29.84 in 10.0 mi North 12.7 mph 18.4 mph 0.09 in   Overcast
7:15 AM 41.0 °F 34.3 °F 41.0 °F 100% 29.84 in 10.0 mi North 11.5 mph 19.6 mph N/A Rain Light Rain
7:20 AM 41.0 °F 34.3 °F 41.0 °F 100% 29.85 in 10.0 mi NNW 11.5 mph - N/A Rain Light Rain
7:35 AM 39.2 °F 31.6 °F 39.2 °F 100% 29.85 in 10.0 mi North 12.7 mph 19.6 mph N/A   Overcast
7:40 AM 39.2 °F 31.6 °F 39.2 °F 100% 29.85 in 7.0 mi NNW 12.7 mph 19.6 mph N/A   Overcast
7:55 AM 39.2 °F 30.8 °F 39.2 °F 100% 29.86 in 1.8 mi NNW 15.0 mph 23.0 mph N/A   Overcast
8:00 AM 39.2 °F 30.2 °F 39.2 °F 100% 29.86 in 1.5 mi NNW 17.3 mph - 0.01 in Rain Light Rain
8:15 AM 39.2 °F 30.5 °F 39.2 °F 100% 29.86 in 1.5 mi NNW 16.1 mph 21.9 mph 0.01 in   Mostly Cloudy
8:35 AM 39.2 °F 30.8 °F 39.2 °F 100% 29.87 in 2.0 mi NNW 15.0 mph 20.7 mph 0.03 in   Mostly Cloudy
8:40 AM 39.2 °F 29.8 °F 39.2 °F 100% 29.86 in 2.0 mi NNW 18.4 mph 21.9 mph 0.03 in   Mostly Cloudy
8:55 AM 39.2 °F 31.6 °F 39.2 °F 100% 29.87 in 2.0 mi North 12.7 mph 23.0 mph 0.04 in   Scattered Clouds
9:15 AM 39.2 °F 30.2 °F 39.2 °F 100% 29.87 in 1.2 mi NNW 17.3 mph 20.7 mph 0.01 in   Scattered Clouds
9:20 AM 39.2 °F 29.8 °F 39.2 °F 100% 29.87 in 2.5 mi North 18.4 mph 25.3 mph 0.02 in Rain Light Rain
9:35 AM 39.2 °F 29.6 °F 39.2 °F 100% 29.85 in 10.0 mi North 19.6 mph 26.5 mph 0.02 in Rain Light Rain
9:40 AM 39.2 °F 29.6 °F 39.2 °F 100% 29.86 in 10.0 mi North 19.6 mph 26.5 mph 0.02 in Rain Light Rain
9:55 AM 37.4 °F 27.8 °F 37.4 °F 100% 29.86 in 10.0 mi NNW 17.3 mph 24.2 mph 0.02 in   Mostly Cloudy
10:15 AM 37.4 °F 27.2 °F 37.4 °F 100% 29.87 in 10.0 mi North 19.6 mph 27.6 mph N/A   Mostly Cloudy
10:20 AM 37.4 °F 28.2 °F 37.4 °F 100% 29.87 in 10.0 mi North 16.1 mph 27.6 mph N/A   Mostly Cloudy
10:35 AM 37.4 °F 26.9 °F 37.4 °F 100% 29.86 in 10.0 mi North 20.7 mph 27.6 mph N/A   Mostly Cloudy
10:40 AM 37.4 °F 26.9 °F 37.4 °F 100% 29.84 in 10.0 mi North 20.7 mph 27.6 mph N/A   Mostly Cloudy
10:55 AM 37.4 °F 27.8 °F 37.4 °F 100% 29.85 in 10.0 mi North 17.3 mph 26.5 mph N/A   Overcast
11:15 AM 37.4 °F 28.2 °F 37.4 °F 100% 29.86 in 10.0 mi North 16.1 mph 21.9 mph N/A   Overcast
11:20 AM 37.4 °F 28.2 °F 37.4 °F 100% 29.86 in 10.0 mi NNW 16.1 mph 21.9 mph N/A   Overcast
11:35 AM 37.4 °F 28.5 °F 37.4 °F 100% 29.86 in 2.5 mi NNW 15.0 mph 21.9 mph N/A   Mostly Cloudy
11:40 AM 37.4 °F 28.5 °F 37.4 °F 100% 29.86 in 1.2 mi NNW 15.0 mph 20.7 mph 0.04 in   Mostly Cloudy
11:55 AM 37.4 °F 28.2 °F 37.4 °F 100% 29.86 in 1.2 mi NNW 16.1 mph - 0.09 in   Scattered Clouds
12:15 PM 37.4 °F 27.8 °F 37.4 °F 100% 29.88 in 1.2 mi NNW 17.3 mph 24.2 mph 0.04 in   Clear
12:20 PM 35.6 °F 25.5 °F 35.6 °F 100% 29.87 in 1.5 mi NNW 17.3 mph 24.2 mph 0.04 in   Clear
12:35 PM 35.6 °F 26.2 °F 35.6 °F 100% 29.88 in 1.5 mi NW 15.0 mph 25.3 mph 0.06 in   Clear
12:40 PM 37.4 °F 28.2 °F 37.4 °F 100% 29.87 in 1.5 mi NNW 16.1 mph 23.0 mph 0.08 in   Clear
12:55 PM 35.6 °F 24.5 °F 35.6 °F 100% 29.86 in 4.0 mi NNW 20.7 mph - 0.10 in Rain Light Rain
1:15 PM 35.6 °F 25.2 °F 35.6 °F 100% 29.87 in 10.0 mi NNW 18.4 mph 23.0 mph N/A Rain Light Rain
1:20 PM 35.6 °F 24.5 °F 35.6 °F 100% 29.86 in 7.0 mi NNW 20.7 mph 28.8 mph N/A Rain Light Rain
1:35 PM 35.6 °F 25.2 °F 35.6 °F 100% 29.86 in 1.2 mi NNW 18.4 mph 24.2 mph 0.01 in   Scattered Clouds
2:15 PM 35.6 °F 24.5 °F 35.6 °F 100% 29.84 in 9.0 mi NNW 20.7 mph 24.2 mph 0.01 in   Mostly Cloudy
2:35 PM 35.6 °F 24.8 °F 35.6 °F 100% 29.84 in 1.8 mi NW 19.6 mph 24.2 mph 0.21 in Rain Heavy Rain
2:40 PM 35.6 °F 24.8 °F 35.6 °F 100% 29.84 in 3.0 mi NW 19.6 mph 25.3 mph 0.25 in Rain Heavy Rain
2:55 PM 35.6 °F 24.5 °F 35.6 °F 100% 29.84 in 10.0 mi NNW 20.7 mph 27.6 mph 0.27 in   Partly Cloudy
3:00 PM 35.6 °F 24.5 °F 35.6 °F 100% 29.84 in 10.0 mi NW 20.7 mph 27.6 mph 0.28 in   Partly Cloudy
3:15 PM 35.6 °F 25.9 °F 35.6 °F 100% 29.84 in 8.0 mi NNW 16.1 mph 25.3 mph 0.01 in   Scattered Clouds
3:20 PM 35.6 °F 26.2 °F 35.6 °F 100% 29.85 in 9.0 mi NW 15.0 mph 25.3 mph 0.02 in   Scattered Clouds
3:35 PM 35.6 °F 24.8 °F 35.6 °F 100% 29.84 in 9.0 mi NW 19.6 mph 24.2 mph 0.04 in Rain Rain
3:40 PM 35.6 °F 24.8 °F 35.6 °F 100% 29.85 in 10.0 mi NNW 19.6 mph 26.5 mph 0.04 in Rain Light Rain
3:55 PM 35.6 °F 25.5 °F 35.6 °F 100% 29.85 in 10.0 mi NW 17.3 mph 26.5 mph 0.05 in   Scattered Clouds
4:15 PM 35.6 °F 25.5 °F 35.6 °F 100% 29.85 in 10.0 mi NNW 17.3 mph 25.3 mph N/A Rain Light Rain
4:20 PM 35.6 °F 25.2 °F 35.6 °F 100% 29.86 in 9.0 mi NNW 18.4 mph 21.9 mph N/A Rain Light Rain
4:35 PM 35.6 °F 25.5 °F 35.6 °F 100% 29.86 in 10.0 mi NW 17.3 mph 25.3 mph N/A Rain Light Rain
4:40 PM 35.6 °F 24.8 °F 35.6 °F 100% 29.86 in 10.0 mi NW 19.6 mph 25.3 mph N/A Rain Light Rain
4:55 PM 35.6 °F 25.2 °F 35.6 °F 100% 29.86 in 10.0 mi NW 18.4 mph 25.3 mph N/A   Mostly Cloudy
5:15 PM 33.8 °F 22.2 °F 33.8 °F 100% 29.86 in 10.0 mi NW 20.7 mph 27.6 mph N/A Rain Light Rain
5:35 PM 33.8 °F 21.6 °F 33.8 °F 100% 29.86 in 10.0 mi NW 23.0 mph 28.8 mph N/A Rain Light Rain
5:40 PM 33.8 °F 22.5 °F 33.8 °F 100% 29.86 in 10.0 mi NW 19.6 mph 28.8 mph N/A Rain Light Rain
5:55 PM 32.0 °F 19.2 °F 32.0 °F 100% 29.86 in 10.0 mi NNW 23.0 mph 33.4 mph N/A Rain Light Rain
6:00 PM 32.0 °F 19.2 °F 32.0 °F 100% 29.87 in 10.0 mi NW 23.0 mph 31.1 mph N/A Rain Light Rain
6:15 PM 32.0 °F 19.2 °F 32.0 °F 100% 29.87 in 10.0 mi NW 23.0 mph 33.4 mph N/A   Overcast
6:20 PM 32.0 °F 18.9 °F 32.0 °F 100% 29.88 in 10.0 mi NW 24.2 mph 32.2 mph N/A   Overcast
6:35 PM 32.0 °F 19.5 °F 32.0 °F 100% 29.88 in 10.0 mi NW 21.9 mph 32.2 mph N/A   Overcast
6:40 PM 32.0 °F 19.8 °F 32.0 °F 100% 29.88 in 10.0 mi NW 20.7 mph 32.2 mph N/A   Overcast
6:55 PM 32.0 °F 20.1 °F 32.0 °F 100% 29.88 in 10.0 mi NW 19.6 mph 27.6 mph N/A   Overcast
7:15 PM 32.0 °F 20.5 °F 32.0 °F 100% 29.89 in 10.0 mi NW 18.4 mph 27.6 mph N/A   Overcast
7:35 PM 32.0 °F 19.8 °F 32.0 °F 100% 29.89 in 10.0 mi NW 20.7 mph 25.3 mph N/A Rain Light Rain
7:40 PM 32.0 °F 19.5 °F 32.0 °F 100% 29.88 in 10.0 mi NW 21.9 mph 25.3 mph N/A   Overcast
7:55 PM 32.0 °F 19.8 °F 32.0 °F 100% 29.89 in 10.0 mi NW 20.7 mph 27.6 mph N/A   Overcast
8:00 PM 32.0 °F 19.8 °F 32.0 °F 100% 29.89 in 10.0 mi NW 20.7 mph 27.6 mph N/A   Overcast
8:15 PM 32.0 °F 20.1 °F 32.0 °F 100% 29.89 in 9.0 mi NW 19.6 mph 28.8 mph 0.01 in   Overcast
8:20 PM 32.0 °F 20.8 °F 32.0 °F 100% 29.90 in 6.0 mi NW 17.3 mph 28.8 mph 0.01 in Snow Light Snow
8:35 PM 32.0 °F 20.5 °F 32.0 °F 100% 29.89 in 3.0 mi NW 18.4 mph 26.5 mph 0.04 in Snow Light Snow
8:40 PM 32.0 °F 20.1 °F 32.0 °F 100% 29.89 in 3.0 mi NW 19.6 mph 26.5 mph 0.05 in Snow Light Snow
8:55 PM 32.0 °F 20.5 °F 32.0 °F 100% 29.89 in 4.0 mi NW 18.4 mph 27.6 mph 0.07 in Snow Light Snow
9:15 PM 32.0 °F 19.8 °F 32.0 °F 100% 29.90 in 5.0 mi NW 20.7 mph 27.6 mph 0.01 in Snow Light Snow
9:20 PM 32.0 °F 20.1 °F 32.0 °F 100% 29.91 in 5.0 mi NW 19.6 mph 27.6 mph 0.02 in Snow Light Snow
9:35 PM 32.0 °F 20.1 °F 32.0 °F 100% 29.91 in 5.0 mi NW 19.6 mph 27.6 mph 0.03 in Snow Light Snow
9:40 PM 32.0 °F 20.1 °F 32.0 °F 100% 29.91 in 6.0 mi NW 19.6 mph 29.9 mph 0.03 in Snow Light Snow
10:15 PM 32.0 °F 20.8 °F 32.0 °F 100% 29.92 in 10.0 mi NW 17.3 mph 23.0 mph N/A Snow Light Snow
10:20 PM 32.0 °F 19.8 °F 32.0 °F 100% 29.92 in 10.0 mi NW 20.7 mph 27.6 mph 0.01 in Snow Light Snow
10:35 PM 32.0 °F 19.8 °F 32.0 °F 100% 29.90 in 10.0 mi NW 20.7 mph 25.3 mph 0.01 in Rain Light Rain
10:40 PM 32.0 °F 20.1 °F 32.0 °F 100% 29.90 in 10.0 mi NW 19.6 mph 25.3 mph 0.01 in   Overcast
10:55 PM 32.0 °F 20.1 °F 32.0 °F 100% 29.91 in 10.0 mi NW 19.6 mph 31.1 mph 0.01 in Rain Light Rain
11:15 PM 32.0 °F 18.1 °F 32.0 °F 100% 29.90 in 10.0 mi NW 27.6 mph 35.7 mph N/A Rain Light Rain
11:35 PM 32.0 °F 20.5 °F 32.0 °F 100% 29.91 in 10.0 mi NW 18.4 mph 35.7 mph N/A Rain Light Rain
11:40 PM 32.0 °F 19.5 °F 32.0 °F 100% 29.91 in 10.0 mi NW 21.9 mph 29.9 mph N/A Rain Light Rain
11:55 PM 32.0 °F 19.8 °F 32.0 °F 100% 29.90 in 10.0 mi NW 20.7 mph 26.5 mph N/A   Overcast